KLM589 EHAM-DGAA

Flight info

Callsign KLM589
Flight time 6h 5m
Altitude 33000
Route WOODY N872 MEDIL DCT KOVIN DCT DUCRA DCT RESMI DCT DEKOD DCT DISAK DCT DIRMO DCT ETAMO DCT ADEKA DCT MOKDI DCT MEN DCT BADAM DCT KANIG DCT KENAS DCT POS N855 GENIO DCT MOGIL UB31 ZEM UZ333 KAHIL UB726 GHA UA615 TMS UA604 EREBO DCT MIGNI DCT ABALA DCT IPUTA DCT TATAT DCT KILMO DCT LITEX LITEX1B
Aircraft B77W/H-SDE1E2E3FGHIJ2J3J4J5M1RWXY/LB1D1

Departure

Time 2026-04-30 13:18
Airport Amsterdam Airport Schiphol (EHAM)

Arrival

Time 2026-04-30 19:23
Airport Kotoka International Airport (DGAA)
Time Latitude Longitude Altitude Speed Heading
2026-04-30 12:28 52.31230 4.76305 5 ft 0 kts 266°
2026-04-30 13:05 52.31230 4.76308 5 ft 1 kts 266°
2026-04-30 13:05 52.31231 4.76332 5 ft 2 kts 266°
2026-04-30 13:05 52.31231 4.76357 5 ft 2 kts 274°
2026-04-30 13:06 52.31224 4.76395 5 ft 2 kts 303°
2026-04-30 13:06 52.31218 4.76408 5 ft 2 kts 316°
2026-04-30 13:06 52.31199 4.76427 5 ft 2 kts 343°
2026-04-30 13:06 52.31183 4.76432 5 ft 2 kts
2026-04-30 13:07 52.31168 4.76427 5 ft 2 kts 21°
2026-04-30 13:07 52.31159 4.76421 5 ft 1 kts 30°
2026-04-30 13:07 52.31158 4.76420 5 ft 0 kts 30°
2026-04-30 13:09 52.31159 4.76420 5 ft 0 kts 28°
2026-04-30 13:09 52.31218 4.76441 5 ft 11 kts
2026-04-30 13:10 52.31290 4.76450 5 ft 9 kts 358°
2026-04-30 13:10 52.31357 4.76427 5 ft 11 kts 343°
2026-04-30 13:10 52.31439 4.76385 5 ft 11 kts 341°
2026-04-30 13:10 52.31504 4.76335 5 ft 9 kts 320°
2026-04-30 13:11 52.31535 4.76247 5 ft 10 kts 279°
2026-04-30 13:11 52.31535 4.76111 5 ft 13 kts 266°
2026-04-30 13:11 52.31528 4.75939 5 ft 17 kts 267°
2026-04-30 13:11 52.31521 4.75714 5 ft 20 kts 267°
2026-04-30 13:12 52.31513 4.75500 5 ft 17 kts 267°
2026-04-30 13:12 52.31506 4.75289 5 ft 21 kts 267°
2026-04-30 13:12 52.31497 4.75007 5 ft 26 kts 266°
2026-04-30 13:13 52.31480 4.74495 5 ft 17 kts 267°
2026-04-30 13:13 52.31474 4.74312 5 ft 12 kts 268°
2026-04-30 13:13 52.31560 4.74153 5 ft 9 kts 358°
2026-04-30 13:14 52.31699 4.74163 5 ft 25 kts
2026-04-30 13:14 52.31867 4.74179 5 ft 22 kts
2026-04-30 13:14 52.32143 4.74204 5 ft 18 kts
2026-04-30 13:15 52.32283 4.74214 5 ft 21 kts
2026-04-30 13:15 52.32630 4.74248 5 ft 24 kts
2026-04-30 13:15 52.32790 4.74263 5 ft 21 kts
2026-04-30 13:16 52.32926 4.74276 5 ft 16 kts
2026-04-30 13:16 52.33018 4.74284 5 ft 11 kts 358°
2026-04-30 13:16 52.33079 4.74225 5 ft 9 kts 303°
2026-04-30 13:17 52.33087 4.74021 5 ft 8 kts 228°
2026-04-30 13:17 52.33035 4.73992 5 ft 7 kts 184°
2026-04-30 13:17 52.32229 4.73919 5 ft 128 kts 183°
2026-04-30 13:18 52.31115 4.73807 37 ft 188 kts 179°
2026-04-30 13:18 52.28397 4.73564 1655 ft 195 kts 177°
2026-04-30 13:18 52.26997 4.73487 2008 ft 210 kts 179°
2026-04-30 13:19 52.25501 4.73330 2433 ft 223 kts 180°
2026-04-30 13:19 52.23930 4.73163 2942 ft 232 kts 180°
2026-04-30 13:19 52.22232 4.73018 3359 ft 248 kts 175°
2026-04-30 13:19 52.20500 4.73501 3832 ft 258 kts 158°
2026-04-30 13:20 52.18852 4.74442 4796 ft 253 kts 157°
2026-04-30 13:20 52.17212 4.75365 5610 ft 255 kts 160°
2026-04-30 13:20 52.15420 4.75777 6325 ft 262 kts 173°
2026-04-30 13:20 52.13578 4.75857 6998 ft 265 kts 174°
2026-04-30 13:21 52.11742 4.75919 7642 ft 267 kts 174°
2026-04-30 13:21 52.09891 4.75992 8277 ft 269 kts 174°
2026-04-30 13:21 52.08027 4.76069 8925 ft 271 kts 174°
2026-04-30 13:22 52.04207 4.76230 10173 ft 279 kts 174°
2026-04-30 13:22 52.02252 4.76316 10693 ft 287 kts 174°
2026-04-30 13:22 51.97983 4.76505 11325 ft 323 kts 176°
2026-04-30 13:23 51.95691 4.76599 11651 ft 341 kts 178°
2026-04-30 13:23 51.90791 4.75353 12284 ft 375 kts 199°
2026-04-30 13:24 51.85899 4.71699 13120 ft 396 kts 204°
2026-04-30 13:24 51.80920 4.67784 14266 ft 406 kts 203°
2026-04-30 13:25 51.75813 4.63798 15604 ft 414 kts 203°
2026-04-30 13:25 51.70583 4.59734 17020 ft 420 kts 203°
2026-04-30 13:26 51.62600 4.53559 18786 ft 431 kts 203°
2026-04-30 13:26 51.57196 4.49394 19921 ft 437 kts 203°
2026-04-30 13:27 51.51668 4.45146 21059 ft 443 kts 203°
2026-04-30 13:28 51.43230 4.38683 22576 ft 455 kts 204°
2026-04-30 13:28 51.37499 4.34311 23604 ft 460 kts 202°
2026-04-30 13:28 51.34618 4.32121 24086 ft 463 kts 202°
2026-04-30 13:29 51.28781 4.27690 25008 ft 468 kts 202°
2026-04-30 13:29 51.22886 4.23218 25865 ft 474 kts 202°
2026-04-30 13:30 51.13772 4.16858 27033 ft 481 kts 196°
2026-04-30 13:31 51.07366 4.13352 27657 ft 491 kts 196°
2026-04-30 13:31 50.99044 4.08812 28422 ft 503 kts 196°
2026-04-30 13:32 50.92409 4.05198 29290 ft 506 kts 196°
2026-04-30 13:32 50.85711 4.01488 29963 ft 513 kts 199°
2026-04-30 13:33 50.79120 3.97221 31121 ft 507 kts 199°
2026-04-30 13:33 50.72678 3.93054 32125 ft 503 kts 199°
2026-04-30 13:34 50.69414 3.90957 32569 ft 501 kts 199°
2026-04-30 13:34 50.59774 3.84802 33244 ft 502 kts 199°
2026-04-30 13:35 50.56518 3.82730 33239 ft 501 kts 200°
2026-04-30 13:36 50.43746 3.73996 33240 ft 502 kts 200°
2026-04-30 13:36 50.34126 3.67447 33237 ft 503 kts 200°
2026-04-30 13:37 50.24496 3.60934 33240 ft 502 kts 200°
2026-04-30 13:38 50.14858 3.54449 33232 ft 502 kts 200°
2026-04-30 13:39 50.02032 3.45867 33228 ft 502 kts 200°
2026-04-30 13:40 49.92416 3.39465 33226 ft 502 kts 200°
2026-04-30 13:40 49.86045 3.35239 33221 ft 501 kts 200°
2026-04-30 13:41 49.79620 3.30990 33206 ft 501 kts 199°
2026-04-30 13:41 49.73254 3.26793 33207 ft 500 kts 199°
2026-04-30 13:42 49.66829 3.22568 33205 ft 501 kts 199°
2026-04-30 13:42 49.57229 3.16277 33208 ft 500 kts 199°
2026-04-30 13:43 49.50844 3.12108 33187 ft 500 kts 199°
2026-04-30 13:43 49.44761 3.06799 33188 ft 507 kts 210°
2026-04-30 13:44 49.38900 3.00823 33174 ft 505 kts 210°
2026-04-30 13:44 49.33072 2.94901 33171 ft 503 kts 210°
2026-04-30 13:45 49.24315 2.86049 33171 ft 505 kts 210°
2026-04-30 13:46 49.18471 2.80164 33163 ft 505 kts 210°
2026-04-30 13:46 49.12587 2.74261 33159 ft 505 kts 210°
2026-04-30 13:47 49.06737 2.68410 33162 ft 507 kts 210°
2026-04-30 13:47 49.00932 2.62620 33158 ft 504 kts 210°
2026-04-30 13:48 48.95073 2.56792 33151 ft 505 kts 210°
2026-04-30 13:48 48.89218 2.50985 33164 ft 503 kts 210°
2026-04-30 13:49 48.83353 2.45186 33165 ft 503 kts 210°
2026-04-30 13:49 48.77535 2.39449 33162 ft 502 kts 210°
2026-04-30 13:50 48.71669 2.33681 33168 ft 503 kts 210°
2026-04-30 13:50 48.62876 2.25063 33153 ft 501 kts 210°
2026-04-30 13:51 48.56899 2.19893 33153 ft 496 kts 199°
2026-04-30 13:51 48.50262 2.17064 33157 ft 493 kts 189°
2026-04-30 13:52 48.43586 2.14901 33125 ft 494 kts 189°
2026-04-30 13:52 48.36871 2.12738 33120 ft 492 kts 189°
2026-04-30 13:53 48.30171 2.10768 33108 ft 492 kts 184°
2026-04-30 13:53 48.23351 2.11049 33123 ft 488 kts 170°
2026-04-30 13:54 48.16630 2.12458 33114 ft 487 kts 170°
2026-04-30 13:54 48.09881 2.13385 33106 ft 489 kts 176°
2026-04-30 13:55 48.03033 2.13784 33102 ft 491 kts 176°
2026-04-30 13:55 47.96214 2.14180 33109 ft 491 kts 176°
2026-04-30 13:56 47.89424 2.14576 33106 ft 493 kts 176°
2026-04-30 13:56 47.82546 2.14976 33104 ft 492 kts 176°
2026-04-30 13:57 47.75751 2.15372 33105 ft 492 kts 176°
2026-04-30 13:57 47.68923 2.15769 33094 ft 491 kts 176°
2026-04-30 13:58 47.58647 2.16365 33086 ft 492 kts 176°
2026-04-30 13:59 47.51872 2.16758 33085 ft 492 kts 176°
2026-04-30 13:59 47.45036 2.17152 33086 ft 492 kts 176°
2026-04-30 14:00 47.38279 2.17541 33073 ft 492 kts 176°
2026-04-30 14:00 47.27996 2.18131 33071 ft 493 kts 176°
2026-04-30 14:01 47.21133 2.18523 33081 ft 492 kts 176°
2026-04-30 14:01 47.14315 2.18912 33062 ft 491 kts 176°
2026-04-30 14:02 47.07580 2.20235 33066 ft 491 kts 163°
2026-04-30 14:02 47.01270 2.23667 33073 ft 492 kts 157°
2026-04-30 14:03 46.94975 2.27357 33065 ft 490 kts 157°
2026-04-30 14:03 46.88608 2.31075 33061 ft 492 kts 158°
2026-04-30 14:04 46.82435 2.35281 33064 ft 490 kts 147°
2026-04-30 14:04 46.76669 2.40745 33083 ft 490 kts 146°
2026-04-30 14:05 46.70994 2.46161 33065 ft 492 kts 146°
2026-04-30 14:05 46.65268 2.51606 33070 ft 492 kts 146°
2026-04-30 14:06 46.56677 2.59744 33068 ft 492 kts 146°
2026-04-30 14:07 46.48053 2.67877 33075 ft 492 kts 147°
2026-04-30 14:08 46.39449 2.75960 33071 ft 490 kts 147°
2026-04-30 14:08 46.30856 2.84003 33078 ft 493 kts 147°
2026-04-30 14:09 46.25127 2.89346 33078 ft 490 kts 147°
2026-04-30 14:10 46.16457 2.97409 33081 ft 493 kts 147°
2026-04-30 14:10 46.10709 3.02737 33085 ft 491 kts 147°
2026-04-30 14:11 46.04986 3.08028 33083 ft 493 kts 147°
2026-04-30 14:11 45.99194 3.13316 33094 ft 491 kts 150°
2026-04-30 14:12 45.92856 3.16906 33098 ft 495 kts 167°
2026-04-30 14:12 45.86018 3.17831 33100 ft 495 kts 179°
2026-04-30 14:13 45.79130 3.17775 33110 ft 494 kts 180°
2026-04-30 14:13 45.72264 3.17695 33106 ft 493 kts 180°
2026-04-30 14:14 45.65433 3.17609 33102 ft 493 kts 180°
2026-04-30 14:14 45.58605 3.17522 33108 ft 492 kts 180°
2026-04-30 14:15 45.51755 3.17432 33110 ft 493 kts 180°
2026-04-30 14:15 45.44875 3.17342 33118 ft 493 kts 180°
2026-04-30 14:16 45.38009 3.17251 33138 ft 493 kts 180°
2026-04-30 14:16 45.31155 3.17161 33157 ft 493 kts 180°
2026-04-30 14:17 45.24361 3.17071 33159 ft 491 kts 180°
2026-04-30 14:17 45.17487 3.16980 33150 ft 493 kts 180°
2026-04-30 14:18 45.10628 3.16890 33148 ft 492 kts 180°
2026-04-30 14:18 45.00404 3.16755 33150 ft 491 kts 180°
2026-04-30 14:19 44.90164 3.16621 33167 ft 491 kts 180°
2026-04-30 14:20 44.83315 3.16532 33155 ft 490 kts 180°
2026-04-30 14:20 44.73153 3.16399 33166 ft 489 kts 180°
2026-04-30 14:21 44.66338 3.16310 33159 ft 489 kts 180°
2026-04-30 14:22 44.56311 3.16272 33154 ft 485 kts 180°
2026-04-30 14:22 44.46182 3.16453 33150 ft 486 kts 181°
2026-04-30 14:23 44.32603 3.16676 33164 ft 491 kts 181°
2026-04-30 14:24 44.22369 3.16838 33155 ft 491 kts 181°
2026-04-30 14:25 44.08699 3.17010 33144 ft 493 kts 185°
2026-04-30 14:26 43.98392 3.15843 33134 ft 494 kts 187°
2026-04-30 14:27 43.88099 3.14606 33142 ft 495 kts 187°
2026-04-30 14:27 43.81250 3.13790 33133 ft 496 kts 188°
2026-04-30 14:28 43.70938 3.12566 33118 ft 495 kts 188°
2026-04-30 14:28 43.64062 3.11751 33125 ft 498 kts 188°
2026-04-30 14:29 43.50269 3.10126 33115 ft 500 kts 188°
2026-04-30 14:31 43.32975 3.08101 33109 ft 498 kts 189°
2026-04-30 14:31 43.22641 3.06895 33097 ft 499 kts 189°
2026-04-30 14:32 43.12254 3.05687 33103 ft 503 kts 189°
2026-04-30 14:33 43.05270 3.04879 33108 ft 503 kts 189°
2026-04-30 14:33 42.94779 3.03666 33081 ft 505 kts 189°
2026-04-30 14:34 42.87794 3.02862 33126 ft 503 kts 189°
2026-04-30 14:34 42.80822 3.02060 33086 ft 504 kts 189°
2026-04-30 14:35 42.70398 3.00865 33113 ft 501 kts 190°
2026-04-30 14:36 42.63450 3.00070 33138 ft 502 kts 190°
2026-04-30 14:36 42.56504 2.99279 33091 ft 500 kts 190°
2026-04-30 14:37 42.49652 2.98502 33085 ft 501 kts 189°
2026-04-30 14:37 42.42612 2.98735 33091 ft 508 kts 182°
2026-04-30 14:38 42.35600 2.99318 33089 ft 507 kts 182°
2026-04-30 14:38 42.28531 2.99901 33045 ft 507 kts 182°
2026-04-30 14:39 42.21525 3.00476 33080 ft 505 kts 182°
2026-04-30 14:39 42.14670 3.01035 33077 ft 507 kts 182°
2026-04-30 14:40 42.04103 3.01893 33104 ft 504 kts 183°
2026-04-30 14:40 41.97108 3.02459 33088 ft 503 kts 183°
2026-04-30 14:41 41.90110 3.03022 33109 ft 506 kts 183°
2026-04-30 14:41 41.83017 3.03593 33089 ft 507 kts 183°
2026-04-30 14:42 41.76008 3.04157 33102 ft 506 kts 183°
2026-04-30 14:42 41.69000 3.04717 33099 ft 506 kts 183°
2026-04-30 14:43 41.61982 3.05279 33071 ft 504 kts 183°
2026-04-30 14:43 41.54972 3.05838 33059 ft 504 kts 183°
2026-04-30 14:44 41.47917 3.06400 33058 ft 505 kts 183°
2026-04-30 14:44 41.40924 3.06954 33055 ft 507 kts 182°
2026-04-30 14:45 41.33842 3.07516 33057 ft 506 kts 183°
2026-04-30 14:45 41.26805 3.08072 33055 ft 506 kts 182°
2026-04-30 14:46 41.19776 3.08627 33056 ft 506 kts 182°
2026-04-30 14:46 41.12700 3.09184 33054 ft 505 kts 182°
2026-04-30 14:47 41.05691 3.09734 33057 ft 506 kts 182°
2026-04-30 14:47 40.98643 3.10288 33055 ft 504 kts 182°
2026-04-30 14:48 40.91634 3.10835 33056 ft 507 kts 182°
2026-04-30 14:48 40.84581 3.11386 33052 ft 506 kts 182°
2026-04-30 14:49 40.77515 3.11937 33054 ft 506 kts 182°
2026-04-30 14:49 40.70527 3.12481 33046 ft 503 kts 182°
2026-04-30 14:50 40.60038 3.13294 33046 ft 503 kts 182°
2026-04-30 14:51 40.49701 3.14027 33041 ft 501 kts 186°
2026-04-30 14:52 40.39258 3.13590 33044 ft 498 kts 187°
2026-04-30 14:52 40.28838 3.13104 33040 ft 499 kts 187°
2026-04-30 14:53 40.18475 3.12627 33036 ft 497 kts 187°
2026-04-30 14:54 40.04611 3.11994 33037 ft 498 kts 187°
2026-04-30 14:55 39.94223 3.11522 33036 ft 499 kts 186°
2026-04-30 14:56 39.80327 3.11656 33036 ft 499 kts 183°
2026-04-30 14:57 39.69871 3.11905 33043 ft 498 kts 183°
2026-04-30 14:58 39.56061 3.12202 33046 ft 498 kts 183°
2026-04-30 14:58 39.45648 3.12419 33041 ft 497 kts 183°
2026-04-30 15:00 39.28546 3.12768 33037 ft 497 kts 183°
2026-04-30 15:01 39.14696 3.13049 33036 ft 498 kts 183°
2026-04-30 15:01 39.04277 3.13263 33036 ft 498 kts 182°
2026-04-30 15:02 38.97362 3.13408 33033 ft 497 kts 182°
2026-04-30 15:03 38.80097 3.13755 33022 ft 496 kts 182°
2026-04-30 15:04 38.62775 3.14102 33025 ft 495 kts 182°
2026-04-30 15:06 38.45473 3.14451 33025 ft 496 kts 182°
2026-04-30 15:07 38.31675 3.14741 33023 ft 496 kts 180°
2026-04-30 15:07 38.24819 3.16276 33021 ft 504 kts 168°
2026-04-30 15:08 38.18049 3.18549 33011 ft 504 kts 168°
2026-04-30 15:09 38.01011 3.23648 33023 ft 503 kts 171°
2026-04-30 15:10 37.87329 3.27445 33019 ft 502 kts 171°
2026-04-30 15:11 37.66872 3.33128 33025 ft 501 kts 171°
2026-04-30 15:13 37.49836 3.37842 33024 ft 501 kts 171°
2026-04-30 15:14 37.25998 3.44402 33028 ft 499 kts 171°
2026-04-30 15:17 36.95512 3.52733 33026 ft 498 kts 171°
2026-04-30 15:19 36.68274 3.59132 33017 ft 493 kts 176°
2026-04-30 17:39 17.77880 5.66304 33970 ft 497 kts 214°
2026-04-30 17:41 17.54163 5.51330 34099 ft 502 kts 213°
2026-04-30 17:42 17.48203 5.47581 35299 ft 494 kts 213°
2026-04-30 17:42 17.39379 5.42033 35963 ft 492 kts 213°
2026-04-30 17:43 17.33476 5.38327 35957 ft 491 kts 213°
2026-04-30 17:44 17.15840 5.27269 35947 ft 492 kts 213°
2026-04-30 17:47 16.89285 5.10666 35959 ft 492 kts 213°
2026-04-30 17:48 16.68806 4.97901 35950 ft 494 kts 213°
2026-04-30 17:50 16.45266 4.83267 35938 ft 493 kts 213°
2026-04-30 17:52 16.27586 4.72304 35923 ft 495 kts 213°
2026-04-30 17:54 16.00650 4.56317 35912 ft 497 kts 206°
2026-04-30 17:56 15.75151 4.44609 35907 ft 499 kts 206°
2026-04-30 17:58 15.56058 4.35856 35907 ft 499 kts 206°
2026-04-30 18:00 15.30498 4.24165 35904 ft 501 kts 205°
2026-04-30 18:01 15.14478 4.16854 35907 ft 501 kts 205°
2026-04-30 18:02 14.95205 4.08074 35894 ft 504 kts 205°
2026-04-30 18:04 14.75899 3.99296 35890 ft 501 kts 205°
2026-04-30 18:06 14.50070 3.87579 35886 ft 507 kts 204°
2026-04-30 18:08 14.27480 3.77356 35892 ft 507 kts 204°
2026-04-30 18:10 14.01597 3.65671 35898 ft 508 kts 204°
2026-04-30 18:11 13.79212 3.55588 35874 ft 509 kts 204°
2026-04-30 18:13 13.63003 3.48299 35871 ft 507 kts 204°
2026-04-30 18:14 13.46856 3.40932 35862 ft 504 kts 204°
2026-04-30 18:15 13.27563 3.31955 35851 ft 505 kts 204°
2026-04-30 18:16 13.14705 3.25988 35856 ft 508 kts 204°
2026-04-30 18:17 13.08267 3.23003 35852 ft 505 kts 204°
2026-04-30 18:18 12.98608 3.18529 35853 ft 507 kts 204°
2026-04-30 18:18 12.92156 3.15542 35852 ft 505 kts 204°
2026-04-30 18:19 12.85729 3.12569 35852 ft 507 kts 204°
2026-04-30 18:19 12.79271 3.09583 35851 ft 507 kts 204°
2026-04-30 18:20 12.72821 3.06602 35849 ft 506 kts 204°
2026-04-30 18:20 12.66366 3.03621 35854 ft 507 kts 204°
2026-04-30 18:21 12.59942 3.00656 35848 ft 508 kts 204°
2026-04-30 18:21 12.53464 2.97667 35853 ft 506 kts 204°
2026-04-30 18:22 12.46984 2.94679 35847 ft 507 kts 204°
2026-04-30 18:22 12.37334 2.90233 35850 ft 508 kts 204°
2026-04-30 18:23 12.30850 2.87247 35862 ft 507 kts 204°
2026-04-30 18:23 12.24497 2.84324 35867 ft 507 kts 204°
2026-04-30 18:24 12.14832 2.79879 35871 ft 506 kts 203°
2026-04-30 18:25 12.08363 2.76906 35876 ft 508 kts 203°
2026-04-30 18:25 11.98653 2.72447 35873 ft 509 kts 204°
2026-04-30 18:26 11.88974 2.68004 35882 ft 507 kts 204°
2026-04-30 18:27 11.79257 2.63549 35888 ft 508 kts 203°
2026-04-30 18:28 11.69837 2.59231 35884 ft 507 kts 203°
2026-04-30 18:28 11.60169 2.54806 35883 ft 507 kts 203°
2026-04-30 18:29 11.47214 2.48879 35896 ft 507 kts 203°
2026-04-30 18:30 11.34291 2.42974 35905 ft 507 kts 203°
2026-04-30 18:31 11.24578 2.38539 35899 ft 508 kts 203°
2026-04-30 18:32 11.14799 2.34078 35903 ft 508 kts 203°
2026-04-30 18:33 11.05090 2.29651 35907 ft 508 kts 203°
2026-04-30 18:33 10.98829 2.26262 35893 ft 510 kts 216°
2026-04-30 18:33 10.96052 2.24043 35907 ft 509 kts 218°
2026-04-30 18:34 10.87826 2.17140 35908 ft 510 kts 219°
2026-04-30 18:35 10.82360 2.12556 35910 ft 510 kts 219°
2026-04-30 18:35 10.76853 2.07942 35905 ft 510 kts 219°
2026-04-30 18:36 10.68626 2.01057 35913 ft 509 kts 219°
2026-04-30 18:37 10.60407 1.94185 35920 ft 509 kts 219°
2026-04-30 18:37 10.54954 1.89627 35924 ft 509 kts 219°
2026-04-30 18:38 10.49484 1.85059 35925 ft 508 kts 218°
2026-04-30 18:38 10.44068 1.80539 35935 ft 510 kts 218°
2026-04-30 18:39 10.38881 1.76210 35941 ft 509 kts 219°
2026-04-30 18:39 10.33798 1.71971 35939 ft 508 kts 219°
2026-04-30 18:40 10.28438 1.67502 35953 ft 509 kts 218°
2026-04-30 18:40 10.23095 1.63051 35965 ft 509 kts 218°
2026-04-30 18:41 10.17638 1.58505 35968 ft 508 kts 218°
2026-04-30 18:41 10.12160 1.53945 35970 ft 508 kts 218°
2026-04-30 18:42 10.06674 1.49380 35968 ft 509 kts 218°
2026-04-30 18:42 9.98434 1.42528 35949 ft 510 kts 218°
2026-04-30 18:45 9.68233 1.17450 35958 ft 509 kts 218°
2026-04-30 18:46 9.62738 1.12893 35963 ft 510 kts 218°
2026-04-30 18:46 9.57237 1.08334 35959 ft 510 kts 218°
2026-04-30 18:47 9.51717 1.03761 35960 ft 510 kts 218°
2026-04-30 18:47 9.46045 0.99477 35930 ft 508 kts 208°
2026-04-30 18:48 9.39546 0.96584 35942 ft 507 kts 200°
2026-04-30 18:48 9.32958 0.94000 35948 ft 507 kts 200°
2026-04-30 18:49 9.26315 0.91400 35951 ft 508 kts 200°
2026-04-30 18:49 9.19707 0.88814 35951 ft 507 kts 199°
2026-04-30 18:50 9.13134 0.86244 35946 ft 507 kts 199°
2026-04-30 18:50 9.06525 0.83661 35960 ft 507 kts 199°
2026-04-30 18:51 8.99931 0.81086 35951 ft 508 kts 199°
2026-04-30 18:51 8.93322 0.78506 35959 ft 507 kts 200°
2026-04-30 18:52 8.86715 0.75927 35969 ft 508 kts 200°
2026-04-30 18:52 8.80109 0.73350 35987 ft 509 kts 200°
2026-04-30 18:53 8.73468 0.70760 35989 ft 508 kts 199°
2026-04-30 18:53 8.66860 0.68184 35976 ft 508 kts 199°
2026-04-30 18:54 8.60348 0.65647 35961 ft 509 kts 199°
2026-04-30 18:54 8.53697 0.63055 35954 ft 509 kts 199°
2026-04-30 18:55 8.47095 0.60485 35942 ft 508 kts 199°
2026-04-30 18:55 8.37100 0.56595 35939 ft 508 kts 199°
2026-04-30 18:56 8.27193 0.52740 35942 ft 509 kts 199°
2026-04-30 18:57 8.17873 0.49117 35943 ft 510 kts 199°
2026-04-30 18:57 8.11221 0.46532 35937 ft 509 kts 199°
2026-04-30 18:58 8.01245 0.42657 35936 ft 510 kts 199°
2026-04-30 18:59 7.91337 0.38810 35929 ft 511 kts 199°
2026-04-30 19:00 7.77979 0.33626 35894 ft 510 kts 199°
2026-04-30 19:01 7.64679 0.28469 35889 ft 511 kts 199°
2026-04-30 19:02 7.54684 0.24596 35894 ft 511 kts 199°
2026-04-30 19:02 7.48064 0.22029 35409 ft 502 kts 199°
2026-04-30 19:03 7.41480 0.19481 33358 ft 509 kts 199°
2026-04-30 19:03 7.34880 0.16927 31640 ft 510 kts 200°
2026-04-30 19:04 7.28236 0.14355 30137 ft 508 kts 199°
2026-04-30 19:04 7.21707 0.11828 29110 ft 496 kts 199°
2026-04-30 19:05 7.15514 0.09433 28000 ft 488 kts 198°
2026-04-30 19:05 7.09202 0.06993 26834 ft 482 kts 199°
2026-04-30 19:06 7.02946 0.04575 25632 ft 476 kts 198°
2026-04-30 19:06 6.99854 0.03380 25039 ft 473 kts 198°
2026-04-30 19:06 6.93833 0.01054 23661 ft 466 kts 198°
2026-04-30 19:07 6.87812 -0.01272 22854 ft 458 kts 198°
2026-04-30 19:07 6.84833 -0.02422 22366 ft 460 kts 198°
2026-04-30 19:08 6.78807 -0.04747 20744 ft 463 kts 198°
2026-04-30 19:08 6.72807 -0.07066 19446 ft 455 kts 198°
2026-04-30 19:08 6.69878 -0.08196 18863 ft 451 kts 198°
2026-04-30 19:09 6.63947 -0.10000 17623 ft 439 kts 185°
2026-04-30 19:09 6.60911 -0.10176 17056 ft 429 kts 175°
2026-04-30 19:09 6.57932 -0.09960 16484 ft 424 kts 172°
2026-04-30 19:10 6.52124 -0.09413 15547 ft 409 kts 172°
2026-04-30 19:10 6.46520 -0.08871 14640 ft 396 kts 172°
2026-04-30 19:11 6.43773 -0.08603 14164 ft 391 kts 172°
2026-04-30 19:11 6.38420 -0.08079 13219 ft 382 kts 171°
2026-04-30 19:11 6.35764 -0.07818 12744 ft 378 kts 171°
2026-04-30 19:12 6.33148 -0.07560 12270 ft 374 kts 171°
2026-04-30 19:12 6.30579 -0.07307 11800 ft 370 kts 171°
2026-04-30 19:12 6.27984 -0.07048 11190 ft 372 kts 171°
2026-04-30 19:13 6.22814 -0.06534 10028 ft 370 kts 170°
2026-04-30 19:13 6.17888 -0.06055 9939 ft 337 kts 170°
2026-04-30 19:13 6.15577 -0.05828 9937 ft 320 kts 170°
2026-04-30 19:14 6.13411 -0.05615 9935 ft 305 kts 170°
2026-04-30 19:14 6.11337 -0.05412 9832 ft 295 kts 170°
2026-04-30 19:14 6.09297 -0.05207 9555 ft 292 kts 170°
2026-04-30 19:14 6.07252 -0.05001 9269 ft 289 kts 170°
2026-04-30 19:15 6.05252 -0.04803 8942 ft 289 kts 171°
2026-04-30 19:15 6.01227 -0.04409 8244 ft 290 kts 171°
2026-04-30 19:15 5.99201 -0.04206 7889 ft 291 kts 171°
2026-04-30 19:16 5.97158 -0.04002 7531 ft 292 kts 171°
2026-04-30 19:16 5.95128 -0.03802 7178 ft 292 kts 172°
2026-04-30 19:16 5.91125 -0.04135 6357 ft 289 kts 196°
2026-04-30 19:17 5.89261 -0.04878 5996 ft 281 kts 202°
2026-04-30 19:17 5.85807 -0.06419 5338 ft 261 kts 202°
2026-04-30 19:17 5.84127 -0.07154 4996 ft 260 kts 201°
2026-04-30 19:18 5.81451 -0.08267 4448 ft 241 kts 200°
2026-04-30 19:18 5.79393 -0.09085 4029 ft 230 kts 199°
2026-04-30 19:18 5.77937 -0.09659 3729 ft 222 kts 199°
2026-04-30 19:19 5.76511 -0.10226 3433 ft 215 kts 200°
2026-04-30 19:19 5.75136 -0.10776 3151 ft 207 kts 200°
2026-04-30 19:19 5.72553 -0.11821 2596 ft 192 kts 200°
2026-04-30 19:20 5.71345 -0.12313 2333 ft 184 kts 200°
2026-04-30 19:20 5.70151 -0.12804 2028 ft 181 kts 200°
2026-04-30 19:20 5.67860 -0.13719 1552 ft 176 kts 200°
2026-04-30 19:21 5.66739 -0.14181 1265 ft 173 kts 200°
2026-04-30 19:21 5.64514 -0.15088 796 ft 169 kts 200°
2026-04-30 19:22 5.62328 -0.15983 373 ft 166 kts 200°
2026-04-30 19:22 5.59829 -0.17007 218 ft 60 kts 202°
2026-04-30 19:23 5.59178 -0.17358 217 ft 17 kts 281°
2026-04-30 19:24 5.59289 -0.17434 217 ft 8 kts 10°
2026-04-30 19:24 5.59363 -0.17408 218 ft 12 kts 22°
2026-04-30 19:24 5.59681 -0.17276 218 ft 24 kts 23°
2026-04-30 19:25 5.60035 -0.17132 218 ft 4 kts 19°
2026-04-30 19:26 5.60075 -0.17155 218 ft 3 kts 299°
2026-04-30 19:26 5.60096 -0.17205 218 ft 3 kts 292°
2026-04-30 19:26 5.60097 -0.17208 218 ft 0 kts 292°